SL-16 DEB, 22458

Orbit data source: Space-Track

SL-16 DEB, 22458 is space debris in LEO originally from a launch on Fri, 25 Dec 1992 UTC launched from the Tyuratam Missile And Space Complex (TTMTR). Debris objects in space refer to the collection of defunct objects orbiting the Earth. Examples of debris include non-operational satellites, rocket bodies, and fragments generated from explosions, collisions, or faulty payload assembly.

Loading next visibility...
Identifier
22458, 1992-093EX
Orbit
LEO
Country
Flag of CISCIS
Related business
Manufacturer
Unknown
Mission
Spacecraft
Bus & Motor
Unknown
Mass
Unknown
Launch date (UTC)
1992-12-25 (33 years ago)
Launch vehicle
Unknown
Launch site
Tyuratam Missile And Space Complex (TTMTR)
Object type
Payload
Rocket body
Debris
Shape & HBR
Unknown shape, 0.1 m
Radar Cross Section
Small (<0.1 m²)

Expand to show TLE details & history
Last TLE update: 7 hours ago

TLE from 7 hours ago
0 SL-16 DEB
1 22458U 92093EX  25304.24935821  .00000263  00000-0  19649-3 0  9995
2 22458  70.8521 294.9350 0074210 218.6424 160.2531 14.02566049676700
Epoch: 2025-10-31T05:59Z
TLE epoch observation values (Epoch: 2025-10-31T05:59:04.549Z)
Latitude
18.08321°
Longitude
171.8454°
Altitude
937.529 km
Speed
7.359 km/s
True Right ascension
20h 05m 38s
True Declination
17° 59' 04"
Sunlit
Object was in daylight at epoch
Visualization orbit readout
Latitude
Unknown
Longitude
Unknown
Altitude
Unknown
Speed
Unknown
Apparent Right ascension
Unknown
Apparent Declination
Unknown
Sunlit
N/A
Visualization observer readout
Local Sidereal Time
08:13:08
Azimuth
Unknown
Elevation
Unknown
Doppler factor
Unknown
Orbital elements
Apogee altitude
936.758 km
Perigee altitude
828.99 km
Semi-major axis
7,261.011 km
Eccentricity
0.00742
Inclination
70.8521°
RAAN
294.935°
Arg. of periapsis
218.6424°
True anomaly
160.53793°
Mean anomaly
160.2531°
Eccentric anomaly
160.39576°
Mean motion
3.5079 °/min
Orbital period
102.63 mins
BSTAR
0.00019649
Loading maneuver chart data...
Computing Atmospheric mass density...
Loading historical data...
Loading historical data...
Loading historical data...
Loading historical data...
Loading historical data...
Loading historical data...
Loading historical data...

Documentation

Showing up to 5 results
|